Regional Weather Roundup
Issued by NWS

Home | Current Version | Previous Version | Text Only | Print | Product List | Glossary Off
Versions: 1 2 3 4 5 6 7 8 9 10 11 12 13 14 15 16 17 18 19 20 21 22 23 24 25 26 27 28 29 30 31 32 33 34 35 36 37 38 39 40 41 42 43 44 45 46 47 48 49 50

000
ASUS43 KDMX 231106
RWRIA

WEATHER ROUNDUP FOR IOWA
NATIONAL WEATHER SERVICE DES MOINES IA
600 AM CDT SAT SEP 23 2017

NOTE: "FAIR" INDICATES FEW OR NO CLOUDS BELOW 12,000 FEET WITH NO
SIGNIFICANT WEATHER AND/OR OBSTRUCTIONS TO VISIBILITY.

* - THESE STATIONS ARE NOT NWS STATIONS...THUS NOT UNDER NWS
QUALITY CONTROL.  THEY ALSO DO NOT REPORT WEATHER SUCH
AS PRECIPITATION OR FOG.

IAZ001>003-012>014-020>022-031>034-043>046-231200-
   NORTHWEST IOWA

CITY           SKY/WX    TMP DP  RH WIND       PRES   REMARKS
CARROLL *      CLEAR     64  64 100 SE8       29.95R
CHEROKEE *     CLEAR     70  69  95 S9        29.92R
DENISON *      CLEAR     70  68  94 VRB5G13   29.96R
LE MARS *      PTCLDY    70  68  94 SW5       29.91R
ORANGE CITY *  PTCLDY    72  70  94 S7        29.91R
SHELDON *      PTCLDY    70  68  94 S9        29.89R
SIOUX CITY     PTCLDY    70  68  93 S6        29.90R
SPENCER        CLEAR     70  67  90 S9        29.92R
STORM LAKE *   CLEAR     68  66  94 S8        29.94R
$$

IAZ055>058-069>071-079>083-090>094-231200-
   SOUTHWEST IOWA

CITY           SKY/WX    TMP DP  RH WIND       PRES   REMARKS
ATLANTIC *     CLEAR     70  66  88 CALM      29.96R
AUDUBON *      CLEAR     70  66  88 S5        29.98R
CLARINDA *     CLEAR     68  68 100 CALM      29.98R
COUNCIL BLFS * CLEAR     70  70 100 SE8       29.94R
CRESTON *      CLEAR     70  66  88 S7        30.00R
HARLAN  *      PTCLDY    70  68  94 S6        29.98R
LAMONI         CLEAR     69  67  93 S7        29.99R
RED OAK *      CLEAR     70  66  88 CALM      29.96R
SHENANDOAH *   CLEAR     72  68  88 SE6       29.95R
$$

IAZ047>049-059>061-072>074-084-231200-
   CENTRAL IOWA

CITY           SKY/WX    TMP DP  RH WIND       PRES   REMARKS
AMES           CLEAR     67  67 100 SE3       29.97R
ANKENY *       CLEAR     70  66  88 CALM      29.98S
BOONE *        CLEAR     72  68  88 S7        29.97R
CHARITON *     CLEAR     68  64  88 SE7       30.00R
DES MOINES     CLEAR     72  67  84 S5        29.97R
GRINNELL*      CLEAR     67  64  88 SE3       30.02R
KNOXVILLE *    CLEAR     70  64  83 SE5       29.98S
MARSHALLTOWN   CLEAR     67  66  97 SE7       29.99R
NEWTON *       CLEAR     66  64  94 SE7       30.00R
PELLA *        CLEAR     69  64  85 SE5       30.01R
PERRY *          N/A     68  67  97 S5        29.97R
$$

IAZ004>006-015-016-023>025-035-036-231200-
   NORTH CENTRAL IOWA

CITY           SKY/WX    TMP DP  RH WIND       PRES   REMARKS
ALGONA *       CLEAR     70  70 100 S12       29.95R
CLARION *      CLEAR     70  70 100 S9        29.97R
ESTHERVILLE    CLEAR     67  67 100 S10       29.91R
FORT DODGE *   CLEAR     73  67  81 S9        29.96R
MASON CITY     CLEAR     67  65  93 S7        29.99R
FOREST CITY *    N/A     66  64  94 SE7       29.97R
WEBSTER CITY * CLEAR     68  66  94 SE6       29.96R
IOWA FALLS *     N/A     69  66  91 S6        29.99S
$$

IAZ007>011-017>019-026>030-037>042-050>054-066-231200-
   NORTHEAST IOWA

CITY           SKY/WX    TMP DP  RH WIND       PRES   REMARKS
CEDAR RAPIDS     N/A     67  63  87 SE5       30.00S
CHARLES CITY * CLEAR     68  68 100 S5        30.00R
CLINTON *      CLEAR    N/A N/A N/A CALM      30.04R
DECORAH *      CLEAR     68  64  88 S5        30.00R
DUBUQUE        CLEAR     67  63  87 S7        30.04R
MONTICELLO *   CLEAR     64  63  94 CALM      30.02R
OELWEIN *      CLEAR     66  66 100 S6        30.02R
WATERLOO       CLEAR     68  64  87 SE3       29.99R
$$

IAZ064-065-067-068-078-231200-
   EAST CENTRAL IOWA

CITY           SKY/WX    TMP DP  RH WIND       PRES   REMARKS
DAVENPORT      CLEAR     65  62  90 S5        30.04S
IOWA CITY      CLEAR     66  62  87 CALM      30.02S
MT. PLEASANT * CLEAR     66  61  84 SE5       30.02R
MUSCATINE *    CLEAR     64  63  94 CALM      30.02R
QUAD CITIES    CLEAR     69  63  81 CALM      30.02R
$$

IAZ062-063-075>077-085>089-095>099-231200-
   SOUTHEAST IOWA

CITY           SKY/WX    TMP DP  RH WIND       PRES   REMARKS
BURLINGTON     CLEAR     67  64  90 S3        30.02R
FAIRFIELD *    CLEAR     70  63  78 S6        30.01R
FORT MADISON * CLEAR     72  64  78 S6        30.03R
KEOKUK *       CLEAR     68  64  88 SE3       30.01S
OSKALOOSA *      N/A     66  63  91 SE5       30.01R
OTTUMWA        CLEAR     68  64  87 S6        30.00R
WASHINGTON *   CLEAR     64  63  94 E6        30.03R
$$

ABBREVIATIONS USED IN REMARKS
   TC - TEMPERATURES IN CELSIUS
  WCI - WIND CHILL INDEX
   HX - HEAT INDEX
  VSB - VISIBILITY
$$





USA.gov is the U.S. government's official web portal to all federal, state and local government web resources and services.